2 Line ISS Keps 3-3
3 Mar
2009
3 Mar
'09
1:43 p.m.
ISS 1 25544U 98067A 09062.31002558 .00010991 00000-0 89353-4 0 3829 2 25544 051.6402 129.2662 0009744 082.8723 044.1430 15.71248579589290
5773
Age (days ago)
5773
Last active (days ago)
0 comments
1 participants
participants (1)
-
Dave Larsen PhD